Weather Roundup
Issued by NWS

Home | Current Version | Previous Version | Text Only | Print | Product List | Glossary On
Versions: 1 2 3 4 5 6 7 8 9 10 11 12 13 14 15 16 17 18 19 20 21 22 23 24 25 26 27 28 29 30 31 32 33 34 35 36 37 38 39 40 41 42 43 44 45 46 47 48 49 50
000
NZUS93 KARX 022310
HRRWXR

CURRENT HOURLY OBSERVATIONS ACROSS
MUCH OF THE UPPER MISSISSIPPI VALLEY
NATIONAL WEATHER SERVICE LA CROSSE WI
600 PM CDT THU JUL 02 2015


...SOUTHEAST MINNESOTA...


CITY           SKY/WX    TMP DP  RH WIND       PRES   REMARKS
ROCHESTER      MOSUNNY   73  54  51 E6        30.01F
ROCHESTER/MAYO FAIR      73  50  43 CALM      30.00F
WINONA         SUNNY     73  54  49 E5        29.99F
AUSTIN         PTSUNNY   73  50  43 CALM      29.99F
ALBERT LEA     PTSUNNY   73  52  46 SE7       29.99F
DODGE CENTER   MOSUNNY   73  54  49 CALM      30.00F
PRESTON        MOSUNNY   72  52  49 NE3       30.01S
OWATONNA       MOSUNNY   73  52  46 SE5       30.00S
FARIBAULT      PTSUNNY   75  54  46 CALM      30.00S
$$

...ELSEWHERE IN MINNESOTA...


CITY           SKY/WX    TMP DP  RH WIND       PRES   REMARKS
MINNEAPOLIS    PTSUNNY   75  54  47 VRB6      29.98F
INTNL FALLS    MOSUNNY   74  59  59 W8        29.90F
DULUTH         MOSUNNY   75  56  51 SW10      29.96F
RED WING       MOSUNNY   75  50  41 SE3       29.98F
REDWOOD FALLS  PTSUNNY   74  49  41 SE7       29.99S
MANKATO        PTSUNNY   72  52  49 CALM      30.00S
WORTHINGTON    PTSUNNY   68  46  45 E6        30.01S
FAIRMONT       MOSUNNY   73  43  33 S7        29.99F
$$

...SOUTHWEST WISCONSIN...


CITY           SKY/WX    TMP DP  RH WIND       PRES   REMARKS
LA CROSSE      SUNNY     76  53  44 E7        29.98F
PRAIRIE DU CHI MOSUNNY   71  51  48 E5        29.98F
BOSCOBEL       SUNNY     73  51  46 E6        29.99F
LONE ROCK      SUNNY     73  51  46 VRB3      30.01S
PLATTEVILLE    MOSUNNY   69  49  47 NE7       29.99F
FORT MC COY    SUNNY     75  46  35 E3        30.01S
CAMP DOUGLAS   SUNNY     72  54  52 SE5       30.00F
VIROQUA        FAIR      72  52  48 CALM      30.01F
WIS DELLS      SUNNY     71  49  45 SE3       30.02S
$$

...ELSEWHERE IN WISCONSIN...


CITY           SKY/WX    TMP DP  RH WIND       PRES   REMARKS
MILWAUKEE      MOSUNNY   61  48  62 NE13      30.02S
MADISON        SUNNY     71  48  43 E3        30.00S
GREEN BAY      SUNNY     72  44  36 E7        30.01F
EAU CLAIRE     MOSUNNY   75  53  46 SE5       29.99S
BLACK RVR FLS  FAIR      76  49  38 SE3       29.99F
MEDFORD        MOSUNNY   72  53  50 SW5       30.02S
WAUSAU         SUNNY     74  48  39 SW6       29.99F
WIS RAPIDS     SUNNY     74  47  38 SE7       30.02S
MARSHFIELD     SUNNY     73  48  41 S7        30.01F
RICE LAKE      SUNNY     74  51  44 S5        30.01F
$$

...NORTHEAST IOWA...


CITY           SKY/WX    TMP DP  RH WIND       PRES   REMARKS
DECORAH          N/A    N/A N/A N/A MISG        N/A
MASON CITY     PTSUNNY   73  53  49 S3        30.01F
CHARLES CITY   PTSUNNY   72  54  53 E5        30.00S
OELWEIN          N/A     72  55  56 E6        29.99S
$$

...ELSEWHERE IN IOWA...


CITY           SKY/WX    TMP DP  RH WIND       PRES   REMARKS
DES MOINES     CLOUDY    68  54  60 CALM      29.97F
IOWA CITY      CLOUDY    70  53  54 NE8       29.97F
FORT DODGE     CLOUDY    68  52  56 SE6       30.00F
$$

...NORTHERN ILLINOIS...


CITY           SKY/WX    TMP DP  RH WIND       PRES   REMARKS
CHICAGO-OHARE  MOSUNNY   65  52  62 NE13      29.98F
CHICAGO-MIDWAY MOSUNNY   69  55  60 N12       29.97F
MOLINE         CLOUDY    70  57  63 E8        29.96F
ROCKFORD       CLOUDY    72  51  47 NE9       29.98F
PEORIA         PTSUNNY   74  58  57 NE7       29.93F
$$

NOTE: "FAIR" INDICATES FEW OR NO CLOUDS BELOW 12,000 FEET WITH NO
SIGNIFICANT WEATHER AND/OR OBSTRUCTIONS TO VISIBILITY. WIND
SPEEDS ARE IN MILES-PER-HOUR.



USA.gov is the U.S. government's official web portal to all federal, state and local government web resources and services.